Weather History for Ardmore, OK

Change the Weather History Date:

Friday, February 22, 2013

  Actual Average Record
Temperature  
Mean Temperature 36 °F -  
Max Temperature 46 °F 55 °F 78 °F (2007)
Min Temperature 26 °F 37 °F 24 °F (2009)
Degree Days  
Heating Degree Days 29    
Moisture  
Dew Point 23 °F    
Average Humidity 73    
Maximum Humidity 80    
Minimum Humidity 43    
Precipitation  
Precipitation 0.00 in - - ()
Sea Level Pressure  
Sea Level Pressure 30.04 in    
Wind  
Wind Speed 11 mph (NNW)    
Max Wind Speed 17 mph    
Max Gust Speed 22 mph    
Visibility 10 miles    
Events      
Averages and records for this station are not official NWS values.
T = Trace of Precipitation, MM = Missing Value Source: NWS Daily Summary

Daily Weather History Graph

Daily Weather History Graph

Search for Another Location

Airport:

Trip Planner

Search our weather history database for the weather conditions in past years. The results will help you decide how hot, cold, wet, or windy it might be!

Date:

Astronomy

Feb. 22, 2013 Rise Set
Actual Time 7:05 AM CST 6:18 PM CST
Civil Twilight 6:39 AM CST 6:43 PM CST
Nautical Twilight 6:10 AM CST 7:12 PM CST
Astronomical Twilight 5:41 AM CST 7:42 PM CST
Moon 3:35 PM CST (2/22) 4:45 AM CST (2/22)
Length of Visible Light 12h 04m
Length of Day
11h 13m
Waxing Gibbous, 90% of the Moon is Illuminated
Feb 22
Waxing Gibbous
Feb 25
Full
Mar 4
Last Quarter
Mar 11
New
Mar 19
First Quarter

Hourly Weather History & Observations

Time (CST) Temp. Windchill Dew Point Humidity Pressure Visibility Wind Dir Wind Speed Gust Speed Precip Events Conditions
12:15 AM 32.0 °F 22.5 °F 26.6 °F 80% 30.00 in 10.0 mi NW 12.7 mph 17.3 mph N/A   Clear
12:35 AM 32.0 °F 22.5 °F 26.6 °F 80% 30.00 in 10.0 mi NNW 12.7 mph 18.4 mph N/A   Clear
12:55 AM 32.0 °F 22.1 °F 24.8 °F 75% 29.98 in 10.0 mi NNW 13.8 mph - N/A   Clear
1:15 AM 30.2 °F 18.5 °F 24.8 °F 80% 29.97 in 10.0 mi North 17.3 mph 21.9 mph N/A   Clear
1:35 AM 30.2 °F 21.9 °F 23.0 °F 75% 29.99 in 10.0 mi NNW 9.2 mph 21.9 mph N/A   Clear
1:55 AM 30.2 °F 20.8 °F 21.2 °F 69% 30.00 in 10.0 mi NNW 11.5 mph 19.6 mph N/A   Clear
2:15 AM 28.4 °F 18.5 °F 21.2 °F 74% 30.00 in 10.0 mi NNW 11.5 mph 19.6 mph N/A   Clear
2:35 AM 28.4 °F 18.0 °F 21.2 °F 74% 30.00 in 10.0 mi NNW 12.7 mph - N/A   Clear
2:55 AM 28.4 °F 21.2 °F 21.2 °F 74% 30.02 in 10.0 mi NNW 6.9 mph - N/A   Clear
3:15 AM 28.4 °F 19.7 °F 21.2 °F 74% 30.02 in 10.0 mi North 9.2 mph - N/A   Clear
3:35 AM 28.4 °F 19.7 °F 21.2 °F 74% 30.02 in 10.0 mi North 9.2 mph - N/A   Clear
3:55 AM 28.4 °F 19.1 °F 21.2 °F 74% 30.01 in 10.0 mi North 10.4 mph - N/A   Clear
4:15 AM 28.4 °F 19.7 °F 21.2 °F 74% 30.01 in 10.0 mi NNW 9.2 mph - N/A   Clear
4:35 AM 28.4 °F 19.7 °F 19.4 °F 69% 30.02 in 10.0 mi NNW 9.2 mph - N/A   Clear
4:55 AM 26.6 °F 21.2 °F 19.4 °F 74% 30.04 in 10.0 mi NNW 4.6 mph - N/A   Clear
5:15 AM 26.6 °F 20.0 °F 19.4 °F 74% 30.05 in 10.0 mi NNW 5.8 mph - N/A   Clear
5:35 AM 26.6 °F - 19.4 °F 74% 30.07 in 10.0 mi Calm Calm - N/A   Clear
1:55 PM 44.6 °F 39.7 °F 24.8 °F 46% 30.07 in 10.0 mi NNW 9.2 mph - N/A   Clear
4:55 PM 46.4 °F 43.5 °F 24.8 °F 43% 30.04 in 10.0 mi NNW 5.8 mph - N/A   Clear
10:35 PM 32.0 °F 24.8 °F 26.6 °F 80% 30.14 in 10.0 mi NNW 8.1 mph - N/A   Clear
10:55 PM 32.0 °F 24.2 °F 26.6 °F 80% 30.13 in 10.0 mi NNW 9.2 mph - N/A   Clear
11:15 PM 32.0 °F 25.6 °F 26.6 °F 80% 30.13 in 10.0 mi North 6.9 mph - N/A   Clear
11:55 PM 32.0 °F 26.4 °F 26.6 °F 80% 30.13 in 10.0 mi North 5.8 mph - N/A   Clear